Weather History for Cambridge Bay, NU

Change the Weather History Date:

Thursday, December 20, 2012

  Actual Average Record
Temperature  
Mean Temperature -18 °F -  
Max Temperature -13 °F -10 °F 24 °F (2010)
Min Temperature -22 °F -22 °F -35 °F (2013)
Degree Days  
Heating Degree Days 83    
Moisture  
Dew Point -27 °F    
Average Humidity 60    
Maximum Humidity 70    
Minimum Humidity 43    
Precipitation  
Precipitation 0.00 in - - ()
Sea Level Pressure  
Sea Level Pressure 30.41 in    
Wind  
Wind Speed 4 mph ()    
Max Wind Speed 13 mph    
Max Gust Speed -    
Visibility 12.8 miles    
Events      
Averages and records for this station are not official NWS values.
T = Trace of Precipitation, MM = Missing Value Source: Averaged Metar Reports

Daily Weather History Graph

Daily Weather History Graph

Search for Another Location

Airport:

Trip Planner

Search our weather history database for the weather conditions in past years. The results will help you decide how hot, cold, wet, or windy it might be!

Date:

Astronomy

Dec. 20, 2012 Rise Set
Actual Time 11:26 AM MST 12:30 PM MST
Civil Twilight 9:37 AM MST 2:19 PM MST
Nautical Twilight 7:58 AM MST 3:58 PM MST
Astronomical Twilight 6:42 AM MST 5:14 PM MST
Moon 11:14 AM MST (12/20) 12:37 AM MST (12/20)
Length of Visible Light 4h 42m
Length of Day
1h 04m
First Quarter, 56% of the Moon is Illuminated
Dec 20
First Quarter
Dec 28
Full
Jan 4
Last Quarter
Jan 11
New
Jan 18
First Quarter

Hourly Weather History & Observations

Time (MST) Temp. Windchill Dew Point Humidity Pressure Visibility Wind Dir Wind Speed Gust Speed Precip Events Conditions
12:00 AM -18.4 °F - -27.4 °F 63% 30.31 in 15.0 mi WNW 2.3 mph - N/A   Scattered Clouds
1:00 AM -22.0 °F - -31.0 °F 63% 30.32 in 15.0 mi ENE 2.3 mph - N/A   Scattered Clouds
2:00 AM -20.2 °F -30.9 °F -29.2 °F 63% 30.33 in 15.0 mi WNW 3.5 mph - N/A   Scattered Clouds
3:00 AM -20.2 °F - -31.0 °F 58% 30.35 in 15.0 mi Calm Calm - N/A   Scattered Clouds
4:00 AM -18.4 °F -28.9 °F -27.4 °F 63% 30.36 in 15.0 mi North 3.5 mph - N/A   Scattered Clouds
5:00 AM -18 °F - -28 °F 43% 30.37 in 15 mi WNW 2.3 mph - -   Scattered Clouds
5:00 AM -18.4 °F - -27.4 °F 63% 30.37 in 15.0 mi NNW 2.3 mph - N/A   Partly Cloudy
6:00 AM -18.4 °F - -29.2 °F 58% 30.37 in 15.0 mi Calm Calm - N/A   Partly Cloudy
7:00 AM -18.4 °F -35.1 °F -27.4 °F 63% 30.38 in 15.0 mi NW 6.9 mph - N/A   Partly Cloudy
8:00 AM -18.4 °F - -25.6 °F 70% 30.39 in 15.0 mi Calm Calm - N/A   Partly Cloudy
9:00 AM -18.4 °F - -29.2 °F 58% 30.40 in 15.0 mi NNW 2.3 mph - N/A   Scattered Clouds
10:00 AM -18.4 °F -36.6 °F -29.2 °F 58% 30.41 in 10.0 mi NW 8.1 mph - N/A   Mostly Cloudy
11:00 AM -19 °F - -28 °F 46% 30.40 in 9 mi NW 6.9 mph - -   Scattered Clouds
11:00 AM -18.4 °F -33.4 °F -27.4 °F 63% 30.40 in 9.0 mi NNW 5.8 mph - N/A   Mostly Cloudy
12:00 PM -18.4 °F -35.1 °F -27.4 °F 63% 30.41 in 10.0 mi WNW 6.9 mph - N/A   Mostly Cloudy
1:00 PM -18.4 °F -37.9 °F -27.4 °F 63% 30.42 in 10.0 mi NW 9.2 mph - N/A   Mostly Cloudy
2:00 PM -16.6 °F -38.9 °F -25.6 °F 64% 30.42 in 10.0 mi NW 12.7 mph - N/A   Mostly Cloudy
3:00 PM -16.6 °F -36.8 °F -25.6 °F 64% 30.43 in 10.0 mi NW 10.4 mph - N/A   Mostly Cloudy
4:00 PM -14.8 °F -33.5 °F -25.6 °F 58% 30.44 in 10.0 mi NNW 9.2 mph - N/A   Mostly Cloudy
5:00 PM -15 °F - -25 °F 44% 30.44 in 10 mi North 4.6 mph - -   Partly Cloudy
5:00 PM -14.8 °F -29.1 °F -25.6 °F 58% 30.44 in 10.0 mi North 5.8 mph - N/A   Mostly Cloudy
6:00 PM -16.6 °F -29.3 °F -25.6 °F 64% 30.45 in 10.0 mi NNW 4.6 mph - N/A   Mostly Cloudy
7:00 PM -16.6 °F -31.3 °F -25.6 °F 64% 30.45 in 10.0 mi NW 5.8 mph - N/A   Mostly Cloudy
8:00 PM -16.6 °F -31.3 °F -25.6 °F 64% 30.47 in 15.0 mi NW 5.8 mph - N/A   Mostly Cloudy
9:00 PM -16.6 °F -29.3 °F -25.6 °F 64% 30.47 in 15.0 mi NNW 4.6 mph - N/A   Mostly Cloudy
10:00 PM -14.8 °F -32.2 °F -23.8 °F 64% 30.46 in 15.0 mi North 8.1 mph - N/A   Mostly Cloudy
11:00 PM -14 °F - -23 °F 46% 30.46 in 15 mi North 9.2 mph - -   Partly Cloudy
11:00 PM -13.0 °F -31.3 °F -23.8 °F 59% 30.46 in 15.0 mi North 9.2 mph - N/A   Mostly Cloudy